Volver al catálogo

ONEWEB-0272

ActivoComunicacionesPO
NORAD 48990·PAYLOAD·🇬🇧 United Kingdom

Lanzado Jul 1, 2021 desde Vostochny Cosmodrome

Loading…

Próximos Pases (próximas 24 horas)

TLE

ActualizadoSource: CelesTrak SupGP

Época: Sep 14, 2026, 14:04 UTC

1 48990C 21060Z   26257.58661296 -.00000076  00000+0 -19779-3 0  2571
2 48990  87.9145 211.0288 0002362  82.4457  18.0467 13.16591014    19

Sigue ONEWEB-0272 en tiempo real con AllMySat

Download on the App Store